Overview Statistics Trail Chart Weather Telemetry Raw packets
 

This is the latest recevied weather packets stored in our database for station/object SV1JSO-13. If no packets are shown the sender has not sent any weather packets the latest 10 day(s).

<< 54 55 56 57 58 59 60 >>
Time Temp. Humidity Pressure Rain* Wind** Luminosity Snow
1788299100 28.33° C 59% 1008.7 hPa 0 mm - 0 W/m² -
1788298800 28.33° C 56% 1008.5 hPa 0 mm - 0 W/m² -
1788298500 28.33° C 53% 1008.7 hPa 0 mm - 0 W/m² -
1788298200 28.89° C 50% 1008.7 hPa 0 mm - 0 W/m² -
1788297900 28.89° C 51% 1008.6 hPa 0 mm - 0 W/m² -
1788297600 28.33° C 52% 1008.5 hPa 0 mm - 0 W/m² -
1788297300 28.33° C 49% 1008.4 hPa 0 mm - 0 W/m² -
1788297000 28.89° C 49% 1008.5 hPa 0 mm - 0 W/m² -
1788296701 28.89° C 51% 1008.4 hPa 0 mm - 0 W/m² -
1788296400 28.89° C 51% 1008.6 hPa 0 mm - 0 W/m² -
1788296100 28.89° C 51% 1008.5 hPa 0 mm - 0 W/m² -
1788295800 28.89° C 50% 1008.7 hPa 0 mm - 0 W/m² -
1788295500 29.44° C 49% 1008.5 hPa 0 mm - 0 W/m² -
1788295200 29.44° C 48% 1008.5 hPa 0 mm - 0 W/m² -
1788294900 28.89° C 49% 1008.6 hPa 0 mm - 0 W/m² -
1788294600 28.89° C 48% 1008.5 hPa 0 mm - 0 W/m² -
1788294300 29.44° C 49% 1008.5 hPa 0 mm - 0 W/m² -
1788294000 29.44° C 49% 1008.5 hPa 0 mm - 0 W/m² -
1788293700 29.44° C 48% 1008.6 hPa 0 mm - 0 W/m² -
1788293400 29.44° C 47% 1008.5 hPa 0 mm - 0 W/m² -
1788293100 29.44° C 46% 1008.5 hPa 0 mm - 0 W/m² -
1788292800 29.44° C 44% 1008.5 hPa 0 mm - 0 W/m² -
1788292500 30° C 43% 1008.5 hPa 0 mm - 0 W/m² -
1788292200 30° C 43% 1008.6 hPa 0 mm - 0 W/m² -
1788291900 30° C 42% 1008.6 hPa 0 mm - 0 W/m² -

* Rain latest hour (hover to see other rain measurements)
** Current wind speed in m/s (hover to see current wind gust speed)